West Plains, MO

10:57 PM CDT on April 22, 2018 (GMT -0500)
West Plains Municipal

Weather History for KUNO - January, 2013

Change the Weather History Date:

Wednesday, January 30, 2013

  Actual Average Record
Temperature  
Mean Temperature 39 °F 35 °F  
Max Temperature 51 °F 46 °F 73 °F (2002)
Min Temperature 27 °F 24 °F -4 °F (1966)
Degree Days  
Heating Degree Days 26 30  
Month to date heating degree days 843 927  
Since 1 July heating degree days 2511 2672  
Cooling Degree Days 0 0  
Month to date cooling degree days 0 0  
Year to date cooling degree days 0 0  
Moisture  
Dew Point 33 °F    
Average Humidity 80    
Maximum Humidity 96    
Minimum Humidity 63    
Precipitation  
Precipitation 0.11 in 0.14 in 3.80 in (1982)
Month to date precipitation 3.38 2.57  
Year to date precipitation 3.38 2.57  
Sea Level Pressure  
Sea Level Pressure 29.63 in    
Wind  
Wind Speed 14 mph (West)    
Max Wind Speed 25 mph    
Max Gust Speed 36 mph    
Visibility 10 miles    
Events Rain    
T = Trace of Precipitation, MM = Missing Value Source: NWS Daily Summary

Daily Weather History Graph

Daily Weather History Graph

Search for Another Location

Airport or City:

Astronomy

Jan. 30, 2013 Rise Set
Actual Time 7:11 AM CST 5:31 PM CST
Civil Twilight 6:43 AM CST 5:58 PM CST
Nautical Twilight 6:12 AM CST 6:29 PM CST
Astronomical Twilight 5:42 AM CST 7:00 PM CST
Moon 9:22 PM CST (1/30) 8:46 AM CST (1/30)
Length of Visible Light 11h 14m
Length of Day
10h 19m
Waning Gibbous, 87% of the Moon is Illuminated
Jan 30
Waning Gibbous
Feb 3
Last Quarter
Feb 10
New
Feb 17
First Quarter
Feb 25
Full

Hourly Weather History & Observations

Time (CST) Temp. Windchill Dew Point Humidity Pressure Visibility Wind Dir Wind Speed Gust Speed Precip Events Conditions
12:39 AM 51.8 °F - 48.2 °F 88% 29.58 in 5.0 mi SSW 6.9 mph - 0.08 in Rain Light Rain
12:53 AM 51.1 °F - 50.0 °F 96% 29.57 in 5.0 mi SSW 6.9 mph - 0.10 in Rain Light Rain
1:53 AM 50.0 °F - 46.9 °F 89% 29.44 in 10.0 mi South 3.5 mph - 0.02 in   Overcast
2:53 AM 48.9 °F - 46.0 °F 90% 29.46 in 10.0 mi South 5.8 mph - N/A   Partly Cloudy
3:53 AM 48.9 °F - 46.0 °F 90% 29.47 in 10.0 mi South 11.5 mph - N/A   Partly Cloudy
4:00 AM 48.2 °F - 46.4 °F 93% 29.48 in 10.0 mi SSW 9.2 mph - N/A   Scattered Clouds
4:11 AM 48.2 °F - 46.4 °F 93% 29.48 in 10.0 mi SSW 8.1 mph - N/A   Mostly Cloudy
4:23 AM 50.0 °F - 46.4 °F 87% 29.49 in 10.0 mi SW 10.4 mph - N/A   Overcast
4:26 AM 50.0 °F - 46.4 °F 87% 29.48 in 10.0 mi SW 8.1 mph - N/A   Overcast
4:53 AM 50.0 °F - 45.0 °F 83% 29.46 in 10.0 mi SW 11.5 mph - N/A   Overcast
5:27 AM 48.2 °F - 44.6 °F 87% 29.47 in 10.0 mi WSW 8.1 mph 18.4 mph N/A   Overcast
5:53 AM 48.0 °F - 45.0 °F 89% 29.46 in 10.0 mi WSW 8.1 mph - N/A   Overcast
6:32 AM 46.4 °F 39.8 °F 42.8 °F 87% 29.49 in 10.0 mi West 16.1 mph 19.6 mph N/A   Overcast
6:53 AM 45.0 °F 38.2 °F 41.0 °F 86% 29.49 in 10.0 mi West 15.0 mph 23.0 mph N/A   Overcast
7:24 AM 42.8 °F 35.8 °F 39.2 °F 87% 29.51 in 9.0 mi West 13.8 mph - N/A   Overcast
7:53 AM 42.1 °F 33.9 °F 37.9 °F 85% 29.53 in 10.0 mi West 17.3 mph 23.0 mph N/A   Overcast
8:15 AM 39.2 °F 30.8 °F 35.6 °F 87% 29.54 in 10.0 mi West 15.0 mph 24.2 mph N/A   Overcast
8:37 AM 39.2 °F 29.6 °F 35.6 °F 87% 29.54 in 10.0 mi West 19.6 mph 25.3 mph N/A   Overcast
8:53 AM 37.9 °F 28.2 °F 34.0 °F 86% 29.57 in 7.0 mi West 18.4 mph 27.6 mph N/A   Overcast
9:30 AM 37.4 °F 28.5 °F 30.2 °F 75% 29.59 in 10.0 mi West 15.0 mph 31.1 mph N/A   Overcast
9:53 AM 37.9 °F 30.0 °F 30.0 °F 73% 29.59 in 10.0 mi West 12.7 mph - N/A   Overcast
10:01 AM 37.4 °F 29.3 °F 30.2 °F 75% 29.59 in 10.0 mi West 12.7 mph 23.0 mph N/A   Overcast
10:20 AM 37.4 °F 28.9 °F 30.2 °F 75% 29.58 in 10.0 mi West 13.8 mph 20.7 mph N/A   Overcast
10:53 AM 37.0 °F 26.7 °F 28.0 °F 70% 29.60 in 10.0 mi WNW 19.6 mph 29.9 mph N/A   Overcast
11:29 AM 35.6 °F 25.5 °F 28.4 °F 75% 29.60 in 10.0 mi NW 17.3 mph 33.4 mph N/A   Overcast
11:53 AM 35.1 °F 23.8 °F 27.0 °F 72% 29.63 in 10.0 mi NW 20.7 mph 31.1 mph N/A   Overcast
12:53 PM 32.0 °F 20.1 °F 21.9 °F 66% 29.67 in 10.0 mi WNW 19.6 mph 35.7 mph N/A   Overcast
1:53 PM 32.0 °F 20.5 °F 24.1 °F 73% 29.70 in 10.0 mi WNW 18.4 mph 26.5 mph N/A   Overcast
2:53 PM 30.9 °F 19.4 °F 21.9 °F 69% 29.74 in 10.0 mi WNW 17.3 mph 26.5 mph N/A   Overcast
3:53 PM 30.0 °F 17.5 °F 21.9 °F 72% 29.79 in 10.0 mi West 19.6 mph 28.8 mph N/A   Overcast
4:53 PM 30.0 °F 18.3 °F 21.0 °F 69% 29.83 in 10.0 mi WNW 17.3 mph 20.7 mph N/A   Overcast
5:53 PM 28.9 °F 17.7 °F 21.0 °F 72% 29.86 in 10.0 mi WNW 15.0 mph 23.0 mph N/A   Overcast
6:53 PM 28.9 °F 16.5 °F 19.0 °F 67% 29.89 in 10.0 mi West 18.4 mph 28.8 mph N/A   Overcast
7:53 PM 28.0 °F 16.5 °F 19.0 °F 69% 29.93 in 10.0 mi West 15.0 mph 21.9 mph N/A   Overcast
8:53 PM 28.0 °F 16.5 °F 18.0 °F 66% 29.96 in 10.0 mi West 15.0 mph 21.9 mph N/A   Overcast
9:53 PM 28.0 °F 18.6 °F 18.0 °F 66% 29.99 in 10.0 mi West 10.4 mph - N/A   Overcast
10:53 PM 28.0 °F 17.5 °F 18.0 °F 66% 30.00 in 10.0 mi WNW 12.7 mph 21.9 mph N/A   Overcast
11:53 PM 27.0 °F 15.6 °F 18.0 °F 69% 30.01 in 10.0 mi West 13.8 mph - N/A   Overcast